Location: Asheville, NC
(35.6000°N, 82.5500°W)
Time: 11:51:38

N. Korean satellite - Pass Details

Date: 10 January 2018
Orbit: 460 x 512 km, 97.2° (Epoch: 19 March)

Event Time Altitude Azimuth Distance (km) Brightness Sun altitude
Rises 18:07:49 0° 154° (SSE) 2,598 10.2 -6.8°
Reaches altitude 10° 18:09:58 10° 147° (SSE) 1,712 9.2 -7.2°
Maximum altitude 18:13:29 44° 75° (ENE) 705 6.9 -7.8°
Drops below altitude 10° 18:16:58 10° 3° (N) 1,699 9.1 -8.5°
Sets 18:19:06 0° 357° (N) 2,577 10.1 -8.9°
